Wind_Speed
12 8 8 6 5 6 8 8 7 7 8 8 7 6 6 7 6 5 6 7 8 9 11 9 8 8 2 3 6 9 13 17 19
7 12 7 7 4 4 5 6 5 4 5 5 5 4 4 4 4 5 6 6 7 8 10 11 11 10 9 7 8 10 13 17 16
4 7 9 8 6 3 3 3 3 2 3 3 4 4 4 4 5 6 7 8 8 7 7 7 8 8 8 8 9 12 17 20 20
2 7 6 3 6 5 6 5 5 5 6 5 3 2 2 3 5 9 11 9 10 11 10 8 8 8 8 10 11 12 15 18 21
3 3 7 5 2 4 4 4 6 8 10 11 11 8 5 7 8 10 11 10 10 11 13 12 13 14 13 12 12 15 19 21 23
7 5 11 5 5 3 2 1 4 8 10 11 15 15 12 11 13 13 15 15 15 16 17 19 16 18 18 17 18 21 22 24 31
12 11 12 13 6 1 2 5 8 10 11 13 13 17 17 17 17 17 19 19 18 19 19 19 19 22 20 23 27 28 28 30 34
19 16 20 14 6 1 6 8 12 17 12 12 14 17 18 20 22 22 21 22 23 24 24 25 25 27 23 27 29 31 31 33 36
28 22 27 18 14 7 10 10 14 20 19 18 19 19 19 21 22 24 26 25 26 28 29 30 31 30 28 28 31 33 36 39 40
29 28 28 19 15 14 13 13 18 22 23 17 16 19 22 24 23 26 28 31 33 34 37 37 36 35 36 36 35 38 43 45 47
35 32 33 32 26 24 24 15 26 22 26 21 22 21 22 25 26 28 33 36 40 44 44 43 42 42 41 39 42 44 47 52 53
32 29 31 32 25 20 28 19 29 25 29 30 28 25 27 29 32 36 42 47 53 42 56 47 47 47 45 42 46 48 51 54 58
41 34 30 28 28 28 28 31 23 30 30 31 32 33 30 37 40 42 43 54 60 59 61 56 50 47 46 45 48 54 57 55 47
34 37 38 28 33 35 32 34 27 30 36 34 32 33 31 34 42 45 47 50 55 57 52 40 59 32 44 51 50 56 64 59 59
35 24 37 42 39 35 24 28 27 29 32 33 32 27 31 41 49 52 44 49 54 55 48 31 29 28 39 47 52 51 53 58 62
31 30 33 42 34 35 31 33 31 30 33 31 29 35 40 44 48 55 49 54 54 52 47 37 31 39 43 45 50 54 56 56 60
40 35 29 32 36 34 37 35 33 36 35 38 42 43 45 45 50 46 50 55 54 53 50 40 41 45 48 56 54 52 53 55 54
45 48 45 37 34 38 42 40 40 42 42 41 44 46 48 49 48 52 57 55 55 54 52 49 48 49 51 51 50 49 50 52 56
37 43 50 47 40 37 40 45 48 47 48 49 45 45 47 51 55 56 56 58 58 56 54 55 55 53 50 47 46 46 50 51 51
33 35 36 35 35 39 41 45 48 49 44 48 41 48 54 55 56 56 58 58 55 54 53 52 49 48 48 45 46 47 47 46 45
Wind_Direction
34 26 27 17 29 71 97 90 79 80 86 79 68 69 91 97 80 67 54 44 34 20 23 38 73 92 102 31 355 345 354 355 8
5 30 23 359 16 36 34 63 76 56 64 77 68 49 55 53 43 42 47 41 29 18 18 20 18 29 33 18 13 357 351 349 354
267 355 356 315 289 317 339 20 27 18 4 14 56 49 34 31 12 10 3 1 3 1 3 2 7 4 5 359 344 346 349 343 348
197 311 313 243 246 269 287 300 307 319 314 313 324 350 334 325 339 347 356 351 354 352 347 348 350 344 343 346 351 354 353 358 358
210 301 237 218 182 213 232 304 318 318 308 301 300 294 294 294 304 311 314 319 328 335 342 338 338 340 342 347 354 355 355 349 349
202 264 244 259 175 103 148 107 341 326 320 313 297 287 284 280 285 290 296 303 307 308 319 327 326 329 326 328 330 333 338 338 346
209 278 249 235 212 173 312 301 313 318 305 302 305 292 281 278 278 284 291 292 291 298 303 309 309 312 311 321 323 325 326 330 330
236 241 256 257 235 249 287 304 315 314 334 335 306 301 292 285 278 277 280 282 282 288 294 294 296 301 294 307 311 316 319 320 322
227 240 251 259 252 257 298 288 295 295 313 329 320 318 305 290 290 281 276 273 267 275 278 283 289 294 288 296 305 308 308 313 313
245 232 246 268 247 246 273 278 278 275 296 297 302 303 302 300 292 287 285 282 271 270 269 273 278 280 284 290 295 299 302 306 309
233 240 252 268 264 236 238 251 272 255 280 278 309 289 283 284 284 286 284 282 272 266 261 262 270 275 277 288 294 297 301 300 301
234 230 248 258 243 239 236 242 259 271 274 286 304 297 291 291 295 292 292 293 288 248 250 255 264 271 278 285 290 292 295 298 301
240 245 253 233 231 250 221 238 240 258 271 286 300 303 307 304 300 302 298 293 283 305 319 264 248 264 274 284 288 291 293 292 298
241 244 237 240 247 242 236 232 241 259 259 290 293 301 300 296 292 293 301 306 323 328 329 304 263 269 277 283 288 288 285 285 289
238 232 243 253 248 241 254 248 258 273 281 286 288 286 283 290 297 304 308 321 319 322 325 311 306 269 277 277 278 288 293 286 288
238 232 238 243 257 241 265 270 271 278 277 271 269 273 286 294 298 306 307 315 315 320 313 305 290 275 271 283 291 289 289 289 288
225 238 235 241 249 256 261 268 269 265 258 261 270 281 287 294 299 301 307 311 313 310 305 304 287 275 276 285 289 293 294 294 294
238 236 239 238 241 250 257 261 260 256 259 265 275 283 288 293 295 299 305 307 307 303 298 295 293 290 291 295 298 298 299 299 298
244 243 244 244 243 243 249 254 259 262 268 271 276 284 289 291 297 301 303 304 303 300 296 297 298 298 298 300 300 300 301 299 300
225 227 230 233 237 234 239 254 260 264 261 270 285 285 290 295 298 298 299 298 296 296 298 297 297 298 301 301 300 302 304 304 308
Height
5933 5931 5930 5930 5930 5930 5929 5929 5930 5930 5929 5929 5930 5929 5929 5929 5929 5929 5929 5927 5926 5925 5922 5919 5916 5914 5913 5913 5912 5911 5909 5909 5909
5935 5932 5932 5931 5931 5930 5931 5931 5930 5930 5930 5930 5930 5930 5930 5930 5930 5929 5928 5928 5927 5926 5924 5923 5921 5917 5915 5914 5913 5911 5909 5908 5908
5935 5934 5932 5931 5931 5930 5931 5931 5932 5932 5931 5931 5930 5929 5930 5929 5929 5929 5929 5928 5927 5925 5924 5922 5920 5918 5917 5916 5916 5913 5912 5910 5909
5932 5932 5932 5931 5931 5930 5930 5930 5930 5930 5932 5931 5931 5930 5929 5928 5928 5929 5928 5928 5927 5926 5925 5922 5919 5916 5915 5915 5913 5912 5910 5907 5905
5927 5929 5929 5929 5929 5928 5929 5929 5928 5929 5930 5931 5930 5929 5928 5928 5927 5926 5925 5925 5925 5924 5922 5921 5920 5917 5914 5912 5910 5909 5905 5902 5900
5920 5924 5926 5926 5925 5925 5926 5927 5927 5927 5927 5927 5928 5927 5926 5925 5924 5923 5923 5923 5922 5921 5920 5919 5917 5914 5911 5909 5906 5903 5901 5899 5895
5914 5919 5922 5923 5922 5922 5923 5923 5924 5925 5925 5924 5923 5923 5922 5922 5921 5921 5920 5919 5918 5917 5916 5914 5912 5910 5908 5905 5903 5899 5896 5893 5890
5909 5913 5915 5917 5917 5918 5919 5920 5921 5921 5920 5920 5918 5917 5917 5917 5917 5917 5916 5915 5914 5912 5910 5908 5906 5904 5901 5898 5895 5892 5889 5886 5884
5901 5905 5909 5911 5913 5913 5915 5916 5918 5917 5916 5915 5913 5913 5913 5912 5912 5911 5910 5910 5908 5906 5903 5901 5898 5896 5893 5889 5887 5885 5881 5879 5876
5892 5896 5901 5904 5906 5908 5911 5913 5914 5912 5912 5912 5910 5910 5909 5908 5906 5904 5904 5903 5901 5897 5893 5890 5889 5888 5886 5883 5879 5877 5874 5871 5867
5882 5888 5891 5895 5900 5901 5904 5906 5907 5902 5906 5906 5905 5904 5903 5900 5899 5898 5895 5894 5891 5886 5881 5878 5877 5879 5877 5875 5872 5867 5863 5860 5854
5879 5880 5884 5889 5893 5895 5895 5896 5899 5897 5899 5899 5899 5897 5896 5895 5894 5892 5888 5883 5878 5840 5852 5866 5868 5867 5868 5864 5860 5855 5850 5846 5844
5871 5874 5877 5881 5882 5886 5887 5888 5890 5892 5892 5891 5890 5890 5889 5889 5888 5888 5883 5874 5860 5837 5853 5850 5848 5853 5854 5849 5848 5844 5838 5833 5829
5863 5865 5868 5872 5874 5878 5878 5879 5883 5885 5885 5883 5884 5883 5883 5881 5879 5876 5875 5868 5857 5850 5844 5832 5833 5838 5843 5839 5834 5829 5823 5818 5814
5854 5855 5860 5865 5867 5869 5869 5872 5874 5876 5877 5876 5877 5877 5874 5870 5866 5862 5859 5856 5853 5842 5837 5833 5823 5822 5826 5824 5820 5817 5807 5800 5795
5845 5848 5852 5856 5858 5861 5862 5864 5866 5868 5867 5867 5867 5865 5863 5862 5856 5852 5847 5843 5836 5832 5829 5823 5818 5819 5817 5815 5809 5801 5793 5786 5781
5835 5841 5845 5849 5852 5853 5855 5856 5857 5857 5858 5857 5856 5855 5855 5851 5848 5843 5839 5835 5828 5823 5820 5816 5813 5810 5806 5802 5793 5785 5778 5772 5767
5824 5831 5836 5839 5843 5845 5846 5846 5846 5845 5846 5846 5846 5845 5844 5840 5837 5835 5830 5828 5824 5819 5814 5808 5802 5797 5791 5783 5776 5770 5763 5756 5751
5814 5819 5825 5830 5832 5835 5837 5836 5834 5836 5835 5835 5835 5832 5830 5829 5826 5823 5818 5816 5811 5805 5800 5794 5788 5780 5775 5769 5762 5755 5751 5743 5736
5804 5807 5811 5815 5818 5822 5824 5826 5825 5827 5822 5820 5821 5823 5820 5817 5813 5809 5804 5799 5795 5791 5786 5779 5773 5766 5760 5754 5748 5743 5737 5729 5720